Beaver Island, MI

7:37 PM EST on January 18, 2017 (GMT -0500)
Beaver Island

Weather History for KSJX - March, 2013

Change the Weather History Date:

Monday, March 4, 2013

  Actual Average Record
Temperature  
Mean Temperature 15 °F -  
Max Temperature 28 °F 32 °F 53 °F (1974)
Min Temperature 2 °F 15 °F -11 °F (1962)
Degree Days  
Heating Degree Days 50    
Moisture  
Dew Point 11 °F    
Average Humidity 78    
Maximum Humidity 94    
Minimum Humidity 45    
Precipitation  
Precipitation 0.00 in - - ()
Sea Level Pressure  
Sea Level Pressure 30.13 in    
Wind  
Wind Speed 3 mph (NNW)    
Max Wind Speed 10 mph    
Max Gust Speed -    
Visibility 10 miles    
Events      
Averages and records for this station are not official NWS values.
T = Trace of Precipitation, MM = Missing Value Source: NWS Daily Summary

Daily Weather History Graph

Daily Weather History Graph

Search for Another Location

Airport or City:

Trip Planner

Search our weather history database for the weather conditions in past years. The results will help you decide how hot, cold, wet, or windy it might be!

Date:

Astronomy

Mar. 04, 2013 Rise Set
Actual Time 7:14 AM EST 6:33 PM EST
Civil Twilight 6:45 AM EST 7:03 PM EST
Nautical Twilight 6:10 AM EST 7:37 PM EST
Astronomical Twilight 5:36 AM EST 8:12 PM EST
Moon 1:36 AM EST (3/4) 11:01 AM EST (3/4)
Length of Visible Light 12h 18m
Length of Day
11h 18m
Waning Gibbous, 52% of the Moon is Illuminated
Mar 4
Waning Gibbous
Mar 4
Last Quarter
Mar 11
New
Mar 19
First Quarter
Mar 27
Full

Hourly Weather History & Observations

Time (EST) Temp. Windchill Dew Point Humidity Pressure Visibility Wind Dir Wind Speed Gust Speed Precip Events Conditions
12:16 AM 19.8 °F 11.9 °F 15.6 °F 84% 30.08 in 10.0 mi NNW 5.8 mph - N/A   Clear
12:36 AM 20.3 °F 11.5 °F 15.6 °F 82% 30.08 in 10.0 mi North 6.9 mph - N/A   Clear
12:55 AM 19.2 °F 12.5 °F 14.4 °F 81% 30.09 in 10.0 mi North 4.6 mph - N/A   Clear
1:16 AM 18.5 °F 13.3 °F 14.0 °F 83% 30.09 in 10.0 mi North 3.5 mph - N/A   Clear
1:36 AM 17.2 °F 11.9 °F 13.1 °F 84% 30.10 in 10.0 mi North 3.5 mph - N/A   Clear
1:55 AM 15.6 °F 10.0 °F 12.6 °F 88% 30.10 in 10.0 mi NNE 3.5 mph - N/A   Clear
2:16 AM 15.6 °F - 12.9 °F 89% 30.11 in 10.0 mi Calm Calm - N/A   Clear
2:56 AM 9.7 °F - 7.7 °F 92% 30.10 in 10.0 mi Calm Calm - N/A   Clear
3:16 AM 8.4 °F - 6.4 °F 92% 30.10 in 10.0 mi Calm Calm - N/A   Clear
3:36 AM 6.6 °F - 3.9 °F 89% 30.10 in 10.0 mi Calm Calm - N/A   Clear
3:56 AM 7.5 °F - 5.2 °F 90% 30.10 in 10.0 mi Calm Calm - N/A   Clear
4:16 AM 5.5 °F - 3.0 °F 89% 30.11 in 10.0 mi Calm Calm - N/A   Clear
4:36 AM 5.4 °F - 2.8 °F 89% 30.12 in 10.0 mi Calm Calm - N/A   Clear
4:56 AM 4.8 °F - 2.1 °F 89% 30.12 in 10.0 mi Calm Calm - N/A   Clear
5:16 AM 4.6 °F - 2.1 °F 89% 30.13 in 10.0 mi Calm Calm - N/A   Clear
5:35 AM 3.9 °F - 1.2 °F 89% 30.13 in 10.0 mi Calm Calm - N/A   Clear
5:56 AM 4.1 °F - 1.8 °F 90% 30.13 in 10.0 mi Calm Calm - N/A   Clear
6:16 AM 2.5 °F - -0.4 °F 88% 30.13 in 10.0 mi Calm Calm - N/A   Clear
6:35 AM 3.0 °F - 0.3 °F 88% 30.13 in 10.0 mi Calm Calm - N/A   Clear
6:56 AM 2.7 °F - -0.4 °F 87% 30.13 in 10.0 mi Calm Calm - N/A   Scattered Clouds
7:16 AM 2.7 °F - -0.0 °F 88% 30.14 in 10.0 mi Calm Calm - N/A   Scattered Clouds
7:35 AM 2.7 °F - -0.2 °F 88% 30.14 in 10.0 mi Calm Calm - N/A   Mostly Cloudy
7:56 AM 3.4 °F - 0.9 °F 89% 30.14 in 10.0 mi Calm Calm - N/A   Overcast
8:16 AM 8.1 °F 1.4 °F 6.3 °F 92% 30.15 in 10.0 mi North 3.5 mph - N/A   Overcast
8:36 AM 14.7 °F 7.3 °F 13.3 °F 94% 30.15 in 10.0 mi NNE 4.6 mph - N/A   Overcast
8:56 AM 16.2 °F - 14.7 °F 94% 30.15 in 10.0 mi Calm Calm - N/A   Overcast
9:16 AM 16.5 °F 9.4 °F 14.9 °F 93% 30.15 in 10.0 mi North 4.6 mph - N/A   Overcast
9:36 AM 16.9 °F 8.5 °F 15.4 °F 94% 30.15 in 10.0 mi North 5.8 mph - N/A   Overcast
9:56 AM 18.0 °F 7.7 °F 16.5 °F 94% 30.15 in 10.0 mi North 8.1 mph - N/A   Mostly Cloudy
10:16 AM 19.0 °F 10.0 °F 14.9 °F 84% 30.16 in 10.0 mi NNE 6.9 mph - N/A   Mostly Cloudy
10:36 AM 19.4 °F 7.9 °F 14.7 °F 82% 30.15 in 10.0 mi North 10.4 mph - N/A   Scattered Clouds
10:56 AM 19.9 °F 10.1 °F 14.5 °F 80% 30.15 in 10.0 mi North 8.1 mph - N/A   Clear
11:16 AM 20.7 °F 13.0 °F 14.9 °F 78% 30.16 in 10.0 mi NNW 5.8 mph - N/A   Clear
11:36 AM 21.2 °F - 14.7 °F 76% 30.16 in 10.0 mi Calm Calm - N/A   Clear
11:56 AM 21.2 °F 14.9 °F 14.0 °F 74% 30.16 in 10.0 mi North 4.6 mph - N/A   Clear
12:16 PM 22.3 °F 16.1 °F 15.1 °F 74% 30.16 in 10.0 mi NW 4.6 mph - N/A   Clear
12:35 PM 22.5 °F 15.1 °F 15.8 °F 76% 30.16 in 10.0 mi NW 5.8 mph - N/A   Clear
12:56 PM 23.0 °F 14.7 °F 14.9 °F 71% 30.15 in 10.0 mi WNW 6.9 mph - N/A   Clear
1:16 PM 23.7 °F 19.3 °F 14.5 °F 68% 30.14 in 10.0 mi NW 3.5 mph - N/A   Clear
1:56 PM 24.8 °F - 6.1 °F 45% 30.13 in 10.0 mi Calm Calm - N/A   Clear
2:16 PM 27.1 °F 20.7 °F 12.4 °F 54% 30.13 in 10.0 mi West 5.8 mph - N/A   Clear
2:36 PM 26.4 °F 19.8 °F 11.1 °F 53% 30.13 in 10.0 mi NW 5.8 mph - N/A   Clear
2:56 PM 26.4 °F 22.4 °F 10.8 °F 52% 30.12 in 10.0 mi NW 3.5 mph - N/A   Clear
3:16 PM 27.0 °F 21.6 °F 10.2 °F 49% 30.12 in 10.0 mi WNW 4.6 mph - N/A   Clear
3:36 PM 27.3 °F - 9.3 °F 47% 30.12 in 10.0 mi Calm Calm - N/A   Clear
3:56 PM 28.2 °F 20.2 °F 12.2 °F 51% 30.12 in 10.0 mi West 8.1 mph - N/A   Clear
4:36 PM 26.4 °F 20.9 °F 17.4 °F 69% 30.12 in 10.0 mi SW 4.6 mph - N/A   Clear
4:56 PM 26.2 °F 20.7 °F 17.1 °F 68% 30.12 in 10.0 mi SW 4.6 mph - N/A   Clear
5:16 PM 25.5 °F 18.7 °F 17.1 °F 70% 30.11 in 10.0 mi WSW 5.8 mph - N/A   Clear
5:36 PM 25.2 °F 20.9 °F 16.7 °F 70% 30.11 in 10.0 mi West 3.5 mph - N/A   Clear
5:56 PM 24.8 °F 20.5 °F 16.3 °F 70% 30.12 in 10.0 mi West 3.5 mph - N/A   Clear
6:16 PM 24.8 °F - 17.2 °F 73% 30.12 in 10.0 mi Calm Calm - N/A   Clear
6:36 PM 23.9 °F - 16.7 °F 74% 30.12 in 10.0 mi Calm Calm - N/A   Clear
6:56 PM 23.0 °F - 15.4 °F 73% 30.13 in 10.0 mi Calm Calm - N/A   Clear
7:16 PM 21.6 °F - 15.4 °F 77% 30.13 in 10.0 mi Calm Calm - N/A   Clear
7:36 PM 24.8 °F 16.1 °F 12.2 °F 59% 30.13 in 10.0 mi North 8.1 mph - N/A   Clear
7:56 PM 23.9 °F 15.8 °F 10.6 °F 57% 30.14 in 10.0 mi North 6.9 mph - N/A   Clear
8:15 PM 23.2 °F 15.0 °F 12.0 °F 62% 30.14 in 10.0 mi NNE 6.9 mph - N/A   Clear
8:36 PM 22.5 °F 13.2 °F 11.7 °F 63% 30.14 in 10.0 mi North 8.1 mph - N/A   Clear
8:56 PM 21.9 °F 13.4 °F 12.0 °F 66% 30.14 in 10.0 mi NNE 6.9 mph - N/A   Clear
9:36 PM 21.2 °F 13.6 °F 13.1 °F 71% 30.14 in 10.0 mi NNE 5.8 mph - N/A   Clear
9:56 PM 20.7 °F - 13.1 °F 73% 30.14 in 10.0 mi Calm Calm - N/A   Clear
10:16 PM 20.8 °F - 13.6 °F 74% 30.14 in 10.0 mi Calm Calm - N/A   Clear
10:36 PM 20.3 °F 15.4 °F 13.8 °F 76% 30.14 in 10.0 mi NE 3.5 mph - N/A   Clear
10:55 PM 20.5 °F - 14.4 °F 77% 30.14 in 10.0 mi Calm Calm - N/A   Clear
11:16 PM 15.4 °F - 10.8 °F 82% 30.14 in 10.0 mi Calm Calm - N/A   Clear
11:36 PM 14.4 °F - 11.7 °F 89% 30.14 in 10.0 mi Calm Calm - N/A   Clear
11:55 PM 14.0 °F - 10.9 °F 88% 30.14 in 10.0 mi Calm Calm - N/A   Clear